Wahpeton, MN

7:26 PM CDT on August 21, 2017 (GMT -0500)
Stern

Weather History for KBWP - March, 2014

Change the Weather History Date:

Tuesday, March 25, 2014

  Actual Average (KFFM) Record (KFFM)
Temperature  
Mean Temperature 18 °F -  
Max Temperature 28 °F 41 °F 66 °F (1968)
Min Temperature 8 °F 24 °F -7 °F (1964)
Degree Days  
Heating Degree Days 47    
Moisture  
Dew Point 5 °F    
Average Humidity 58    
Maximum Humidity 86    
Minimum Humidity 31    
Precipitation  
Precipitation 0.00 in - - ()
Sea Level Pressure  
Sea Level Pressure 30.23 in    
Wind  
Wind Speed 11 mph (NW)    
Max Wind Speed 16 mph    
Max Gust Speed 22 mph    
Visibility 10 miles    
Events      
Averages and records for this station are not official NWS values.
T = Trace of Precipitation, MM = Missing Value Source: NWS Daily Summary

Daily Weather History Graph

Daily Weather History Graph

Search for Another Location

Airport or City:

Trip Planner

Search our weather history database for the weather conditions in past years. The results will help you decide how hot, cold, wet, or windy it might be!

Date:

Astronomy

Mar. 25, 2014 Rise Set
Actual Time 7:19 AM CDT 7:45 PM CDT
Civil Twilight 6:49 AM CDT 8:15 PM CDT
Nautical Twilight 6:14 AM CDT 8:51 PM CDT
Astronomical Twilight 5:37 AM CDT 9:28 PM CDT
Moon 3:59 AM CDT (3/25) 2:01 PM CDT (3/25)
Length of Visible Light 13h 26m
Length of Day
12h 26m
Waning Crescent, 32% of the Moon is Illuminated
Mar 25
Waning Crescent
Mar 30
New
Apr 7
First Quarter
Apr 15
Full
Apr 22
Last Quarter

Hourly Weather History & Observations

Time (CDT) Temp. Windchill Dew Point Humidity Pressure Visibility Wind Dir Wind Speed Gust Speed Precip Events Conditions
12:15 AM 14.0 °F 0.5 °F 10.4 °F 86% 30.27 in 10.0 mi North 11.5 mph - N/A   Mostly Cloudy
12:35 AM 15.8 °F 2.1 °F 10.4 °F 79% 30.27 in 10.0 mi NNW 12.7 mph - N/A   Overcast
12:55 AM 14.0 °F 0.5 °F 8.6 °F 79% 30.28 in 7.0 mi NNW 11.5 mph 19.6 mph N/A   Overcast
1:15 AM 14.0 °F -0.2 °F 8.6 °F 79% 30.28 in 10.0 mi NNW 12.7 mph 21.9 mph N/A   Overcast
1:35 AM 14.0 °F -1.4 °F 8.6 °F 79% 30.28 in 10.0 mi NNW 15.0 mph 21.9 mph N/A   Overcast
1:55 AM 14.0 °F -2.0 °F 6.8 °F 73% 30.28 in 10.0 mi NNW 16.1 mph 20.7 mph N/A   Overcast
2:15 AM 14.0 °F -0.8 °F 5.0 °F 67% 30.29 in 10.0 mi NNW 13.8 mph 21.9 mph N/A   Overcast
2:35 AM 12.2 °F -2.5 °F 5.0 °F 73% 30.29 in 10.0 mi NNW 12.7 mph - N/A   Scattered Clouds
2:55 AM 12.2 °F -3.7 °F 3.2 °F 67% 30.29 in 10.0 mi NNW 15.0 mph 19.6 mph N/A   Clear
3:15 AM 12.2 °F -4.3 °F 3.2 °F 67% 30.30 in 10.0 mi NNW 16.1 mph 19.6 mph N/A   Clear
3:35 AM 12.2 °F -3.7 °F 3.2 °F 67% 30.29 in 10.0 mi NNW 15.0 mph 18.4 mph N/A   Clear
3:55 AM 12.2 °F -1.8 °F 3.2 °F 67% 30.30 in 10.0 mi NNW 11.5 mph - N/A   Clear
4:15 AM 12.2 °F -3.1 °F 3.2 °F 67% 30.30 in 10.0 mi NNW 13.8 mph - N/A   Clear
4:35 AM 10.4 °F -6.0 °F 3.2 °F 73% 30.31 in 10.0 mi NNW 15.0 mph - N/A   Clear
4:55 AM 10.4 °F -4.1 °F 3.2 °F 73% 30.31 in 10.0 mi NW 11.5 mph - N/A   Clear
5:15 AM 10.4 °F -2.4 °F 3.2 °F 73% 30.31 in 10.0 mi NNW 9.2 mph - N/A   Clear
5:35 AM 10.4 °F -4.1 °F 3.2 °F 73% 30.31 in 10.0 mi NNW 11.5 mph - N/A   Clear
5:55 AM 10.4 °F -4.8 °F 3.2 °F 73% 30.31 in 10.0 mi NNW 12.7 mph - N/A   Clear
6:15 AM 10.4 °F -2.4 °F 1.4 °F 67% 30.30 in 10.0 mi NNW 9.2 mph - N/A   Clear
6:35 AM 10.4 °F -4.1 °F 3.2 °F 73% 30.31 in 10.0 mi NW 11.5 mph - N/A   Clear
6:55 AM 10.4 °F -2.4 °F 1.4 °F 67% 30.31 in 10.0 mi NW 9.2 mph - N/A   Clear
7:15 AM 8.6 °F -4.7 °F 1.4 °F 73% 30.31 in 10.0 mi NW 9.2 mph - N/A   Clear
7:35 AM 8.6 °F -3.7 °F 3.2 °F 79% 30.31 in 10.0 mi NW 8.1 mph - N/A   Clear
7:55 AM 10.4 °F -3.3 °F 3.2 °F 73% 30.32 in 10.0 mi NW 10.4 mph - N/A   Clear
8:15 AM 10.4 °F -2.4 °F 3.2 °F 73% 30.32 in 10.0 mi NW 9.2 mph - N/A   Clear
8:35 AM 12.2 °F -2.5 °F 3.2 °F 67% 30.33 in 10.0 mi NW 12.7 mph - N/A   Clear
8:55 AM 12.2 °F -3.1 °F 3.2 °F 67% 30.33 in 10.0 mi WNW 13.8 mph 18.4 mph N/A   Clear
9:15 AM 12.2 °F -1.8 °F 3.2 °F 67% 30.33 in 10.0 mi WNW 11.5 mph - N/A   Clear
9:35 AM 14.0 °F 2.0 °F 3.2 °F 62% 30.33 in 10.0 mi NW 9.2 mph - N/A   Clear
9:55 AM 14.0 °F 2.0 °F 3.2 °F 62% 30.32 in 10.0 mi WNW 9.2 mph - N/A   Clear
10:15 AM 14.0 °F 0.5 °F 3.2 °F 62% 30.33 in 10.0 mi WNW 11.5 mph 16.1 mph N/A   Clear
10:35 AM 15.8 °F 4.2 °F 3.2 °F 58% 30.32 in 10.0 mi West 9.2 mph - N/A   Clear
10:55 AM 17.6 °F 5.7 °F 3.2 °F 53% 30.31 in 10.0 mi WNW 10.4 mph - N/A   Scattered Clouds
11:15 AM 17.6 °F 6.4 °F 3.2 °F 53% 30.31 in 10.0 mi West 9.2 mph 18.4 mph N/A   Scattered Clouds
11:35 AM 19.4 °F 7.2 °F 3.2 °F 49% 30.31 in 10.0 mi NW 11.5 mph 19.6 mph N/A   Scattered Clouds
11:55 AM 19.4 °F 7.9 °F 3.2 °F 49% 30.30 in 10.0 mi WNW 10.4 mph 17.3 mph N/A   Mostly Cloudy
12:15 PM 19.4 °F 5.5 °F 3.2 °F 49% 30.30 in 10.0 mi WNW 15.0 mph 20.7 mph N/A   Scattered Clouds
12:35 PM 21.2 °F 10.1 °F 3.2 °F 46% 30.29 in 10.0 mi NW 10.4 mph 17.3 mph N/A   Scattered Clouds
12:55 PM 21.2 °F 7.8 °F 3.2 °F 46% 30.28 in 10.0 mi NW 15.0 mph 19.6 mph N/A   Mostly Cloudy
1:15 PM 21.2 °F 8.9 °F 3.2 °F 46% 30.27 in 10.0 mi NW 12.7 mph 18.4 mph N/A   Scattered Clouds
1:35 PM 21.2 °F 9.5 °F 1.4 °F 42% 30.26 in 10.0 mi NW 11.5 mph 19.6 mph N/A   Scattered Clouds
1:55 PM 23.0 °F 10.6 °F 1.4 °F 39% 30.26 in 10.0 mi WNW 13.8 mph 19.6 mph N/A   Mostly Cloudy
2:15 PM 23.0 °F 12.4 °F 3.2 °F 43% 30.25 in 10.0 mi NNW 10.4 mph 16.1 mph N/A   Mostly Cloudy
2:35 PM 24.8 °F 15.3 °F 1.4 °F 36% 30.24 in 10.0 mi WNW 9.2 mph 20.7 mph N/A   Scattered Clouds
2:55 PM 23.0 °F 14.7 °F 1.4 °F 39% 30.23 in 10.0 mi NW 6.9 mph 18.4 mph N/A   Scattered Clouds
3:15 PM 24.8 °F 17.9 °F 1.4 °F 36% 30.22 in 10.0 mi NNW 5.8 mph 18.4 mph N/A   Scattered Clouds
3:35 PM 26.6 °F 16.8 °F 1.4 °F 34% 30.20 in 10.0 mi NW 10.4 mph - N/A   Scattered Clouds
3:55 PM 26.6 °F 15.2 °F 1.4 °F 34% 30.19 in 10.0 mi NW 13.8 mph 18.4 mph N/A   Clear
4:15 PM 26.6 °F 18.2 °F 1.4 °F 34% 30.19 in 10.0 mi WNW 8.1 mph - N/A   Clear
4:35 PM 26.6 °F 20.0 °F 1.4 °F 34% 30.18 in 10.0 mi North 5.8 mph - N/A   Clear
4:55 PM 26.6 °F 16.2 °F 1.4 °F 34% 30.17 in 10.0 mi WNW 11.5 mph - N/A   Clear
5:15 PM 26.6 °F 18.2 °F 1.4 °F 34% 30.16 in 10.0 mi WNW 8.1 mph - N/A   Clear
5:35 PM 26.6 °F 21.2 °F 1.4 °F 34% 30.16 in 10.0 mi WNW 4.6 mph - N/A   Clear
5:55 PM 28.4 °F 19.1 °F 1.4 °F 31% 30.16 in 10.0 mi WNW 10.4 mph - N/A   Clear
6:15 PM 26.6 °F 20.0 °F 1.4 °F 34% 30.16 in 10.0 mi WNW 5.8 mph - N/A   Clear
6:35 PM 28.4 °F 22.2 °F 1.4 °F 31% 30.15 in 10.0 mi NW 5.8 mph - N/A   Clear
6:55 PM 26.6 °F 18.2 °F 1.4 °F 34% 30.14 in 10.0 mi WNW 8.1 mph - N/A   Clear
7:15 PM 26.6 °F 20.0 °F 1.4 °F 34% 30.13 in 10.0 mi WNW 5.8 mph - N/A   Clear
7:35 PM 24.8 °F - 3.2 °F 40% 30.13 in 10.0 mi Calm Calm - N/A   Clear
7:55 PM 24.8 °F - 5.0 °F 43% 30.12 in 10.0 mi Calm Calm - N/A   Clear
8:15 PM 24.8 °F - 10.4 °F 54% 30.12 in 10.0 mi Calm Calm - N/A   Clear
8:35 PM 24.8 °F - 8.6 °F 50% 30.11 in 10.0 mi Calm Calm - N/A   Clear
8:55 PM 23.0 °F - 12.2 °F 63% 30.11 in 10.0 mi Calm Calm - N/A   Clear
9:15 PM 23.0 °F - 12.2 °F 63% 30.10 in 10.0 mi Calm Calm - N/A   Clear
9:35 PM 23.0 °F - 14.0 °F 68% 30.10 in 10.0 mi Calm Calm - N/A   Clear
9:55 PM 21.2 °F 13.6 °F 12.2 °F 68% 30.09 in 10.0 mi South 5.8 mph - N/A   Clear
10:15 PM 19.4 °F 12.8 °F 10.4 °F 68% 30.09 in 10.0 mi South 4.6 mph - N/A   Clear
10:35 PM 19.4 °F 14.3 °F 10.4 °F 68% 30.09 in 10.0 mi SSE 3.5 mph - N/A   Clear
10:55 PM 19.4 °F 10.4 °F 10.4 °F 68% 30.08 in 10.0 mi South 6.9 mph - N/A   Clear
11:15 PM 19.4 °F 12.8 °F 10.4 °F 68% 30.07 in 10.0 mi South 4.6 mph - N/A   Clear
11:35 PM 21.2 °F 14.9 °F 10.4 °F 63% 30.07 in 10.0 mi South 4.6 mph - N/A   Clear
11:55 PM 19.4 °F 12.8 °F 12.2 °F 74% 30.07 in 10.0 mi South 4.6 mph - N/A   Clear